CZ-4B R/B, 40337

Orbit data source: Space-Track

CZ-4B R/B, 40337 is space debris in SSO originally from a launch on Sun, 07 Dec 2014 UTC launched from the Taiyaun Space Center, China (TSC). Debris objects in space refer to the collection of defunct objects orbiting the Earth. Examples of debris include non-operational satellites, rocket bodies, and fragments generated from explosions, collisions, or faulty payload assembly.

Loading next visibility...
Identifier
40337, 2014-079B
Orbit
SSO
Country
Flag of CNCN / PRC
Related business
Manufacturer
SAST
Mission
Spacecraft
Bus & Motor
CZ-4 STAGE 3, Unknown motor
Mass
~1,000 kg wet, ~1,000 kg dry
Launch date (UTC)
2014-12-07 (11 years ago)
Launch vehicle
Unknown
Launch site
Taiyaun Space Center, China (TSC)
Object type
Payload
Rocket body
Debris
Shape & HBR
Cyl, 2.5 m
Radar Cross Section
14.536 m², Large (>1 m²)

Expand to show TLE details & history
Last TLE update: 4 hours ago

TLE from 4 hours ago
0 CZ-4B R/B
1 40337U 14079B   25342.63820799  .00005982  00000-0  34865-3 0  9991
2 40337  98.4771  54.6501 0144056 251.1886 107.3666 15.04037143599063
Epoch: 2025-12-08T15:19Z
TLE epoch observation values (Epoch: 2025-12-08T15:19:01.170Z)
Latitude
0.00004°
Longitude
107.26085°
Altitude
588.617 km
Speed
7.549 km/s
True Right ascension
03h 38m 36s
True Declination
0° 00' 00"
Sunlit
Object was in full shadow at epoch
Visualization orbit readout
Latitude
Unknown
Longitude
Unknown
Altitude
Unknown
Speed
Unknown
Apparent Right ascension
Unknown
Apparent Declination
Unknown
Sunlit
N/A
Visualization observer readout
Local Sidereal Time
17:26:22
Azimuth
Unknown
Elevation
Unknown
Doppler factor
Unknown
Orbital elements
Apogee altitude
651.323 km
Perigee altitude
451.672 km
Semi-major axis
6,929.635 km
Eccentricity
0.01441
Inclination
98.4771°
RAAN
54.6501°
Arg. of periapsis
251.1886°
True anomaly
108.93349°
Mean anomaly
107.3666°
Eccentric anomaly
108.15091°
Mean motion
3.76251 °/min
Orbital period
95.68 mins
BSTAR
0.00034865
Loading maneuver chart data...
Computing Atmospheric mass density...
Loading historical data...
Loading historical data...
Loading historical data...
Loading historical data...
Loading historical data...
Loading historical data...
Loading historical data...
Other satellites on launch #79 in the year 2014 (2014-12-07 UTC)

Documentation

Showing up to 5 results
|